User: anonymous   Login
Location: Mount Graham
(32.7016°N, 109.8912°W)
Time: 03:56:23
(UTC-07:00)
Language:

Cosmos 1340 - Orbit

View from above orbital plane
View from above orbital plane
View from above satellite
View from above satellite

Ground track
Ground track

The orbit data is extracted from the following two-line orbital elements,

1 13067U 82013A   16043.52569501  .00005122  00000-0  25096-3 0  9993
2 13067  81.1900 345.8585 0004388  39.5137  12.0092 15.17976267853345
Epoch (UTC): 12 February 2016 12:37:00
Eccentricity: 0.0004388
inclination: 81.1900°
perigee height: 509 km
apogee height: 515 km
right ascension of ascending node: 345.8585°
argument of perigee: 39.5137°
revolutions per day: 15.17976267
mean anomaly at epoch: 12.0092°
orbit number at epoch: 85334

The dashed part of the orbit path shows where the satellite is in the earth's shadow,  

DLR